Flag for U.S.A. Weather past 2 weeks in Davenport, Iowa, U.S.A.

Now
69 °F

Sunny.


Feels Like: 69 °F
Forecast: 55 / 82 °F
Wind: 3 mph from West

Location: Davenport Municipal Airport

Current Time: Aug 4, 2015 at 9:36:47 AM

Latest Report: Aug 4, 2015 at 8:52 AM


Visibility: 10 mi

Pressure: 30.00 "Hg

Humidity: 79%

Dew point: 62 °F

Location of DavenportLocation

Historic Weather in Davenport — Graph

°F

Davenport temperature yesterday

Maximum temperature yesterday: 80 °F (at 2:52 PM)
Minimum temperature yesterday: 61 °F (at 10:52 PM)
Average temperature yesterday: 71 °F

Past Weeks' High & Low Weather Summary

 TemperatureHumidityPressure
High90 °F (Jul 25, 3:52 PM)97% (Jul 20, 7:52 AM)30.11 "Hg (Jul 20, 7:52 AM)
Low54 °F (Aug 4, 4:52 AM)39% (Aug 3, 1:52 PM)29.69 "Hg (Aug 2, 6:52 PM)
Average74 °F77%29.95 "Hg
* Reported Jul 20 7:52 AM — Aug 4 7:52 AM, Davenport, Weather by CustomWeather, © 2015

Note: Actual official high and low records may vary slightly from our data, if they occured in-between our weather recording intervals... More about our weather records

Advertising

Davenport weather history for previous 24 hours

 ConditionsComfort  
Time TempWeatherWind HumidityBarometerVisibility
7:52 AM
Tue, Aug 4
64 °FSunny.3 mph87%29.98 "Hg10 mi
6:52 AM58 °FClear.5 mph93%29.99 "Hg10 mi
5:52 AM56 °FClear.5 mph93%29.98 "Hg10 mi
4:52 AM54 °FClear.3 mph93%29.95 "Hg10 mi
3:52 AM55 °FClear.No wind93%29.94 "Hg10 mi
2:52 AM57 °FClear.3 mph90%29.94 "Hg10 mi
1:52 AM57 °FClear.3 mph93%29.94 "Hg10 mi
12:52 AM59 °FClear.5 mph90%29.95 "Hg10 mi
11:52 PM
Mon, Aug 3
61 °FClear.3 mph87%29.95 "Hg10 mi
10:52 PM61 °FClear.6 mph87%29.94 "Hg10 mi
9:52 PM64 °FClear.6 mph84%29.93 "Hg10 mi
8:52 PM65 °FSunny.7 mph81%29.91 "Hg10 mi
7:52 PM70 °FSunny.6 mph71%29.90 "Hg10 mi
6:52 PM76 °FSunny.6 mph52%29.89 "Hg10 mi
5:52 PM79 °FSunny.9 mph44%29.89 "Hg10 mi
4:52 PM79 °FSunny.9 mph42%29.90 "Hg10 mi
3:52 PM79 °FSunny.9 mph44%29.91 "Hg10 mi
2:52 PM80 °FSunny.5 mph39%29.91 "Hg10 mi
1:52 PM79 °FSunny.6 mph39%29.91 "Hg10 mi
12:52 PM78 °FSunny.7 mph42%29.92 "Hg10 mi
11:52 AM77 °FSunny.7 mph44%29.92 "Hg10 mi
10:52 AM76 °FSunny.9 mph47%29.91 "Hg10 mi
9:52 AM75 °FSunny.7 mph54%29.90 "Hg10 mi
Weather by CustomWeather, © 2015

See weather overviewHow to use our weather pages